STARLINK-34936, 65898

Orbit data source: Space-Track

STARLINK-34936, 65898 is a payload satellite owned by SpaceX/Seattle (US) in LEO that was launched on Tue, 07 Oct 2025 UTC via an FALCON 9 launch vehicle from the Air Force Eastern Test Range (AFETR). Payload-class satellites include a variety of spacecraft equipped with specific instruments for various scientific and technological missions. These include communications satellites like Starlink; space stations such as the ISS; scientific satellites like the Hubble; Earth observation satellites from companies like Planet Labs, Umbra, and HawkEye 360; GPS; miniature CubeSats for education and research; and military/defense satellites.

Loading next visibility...
Identifier
65898, 2025-224S
Orbit
LEO
Country
Flag of USUS
Related business
Manufacturer
SpaceX/Seattle
Mission
Operational Commercial Communications
Bus & Motor
STARLINK V2MO, Unknown motor
Mass
575 kg wet, ~530 kg dry
Launch date (UTC)
2025-10-07 (4 months ago)
Launch vehicle
FALCON 9
Launch site
Air Force Eastern Test Range (AFETR)
Object type
Payload
Rocket body
Debris
Shape & HBR
Box + 2 Pan, 17.7 m
Radar Cross Section
36.964 m²

Expand to show TLE details & history
Last TLE update: 1 day ago

TLE from 1 day ago
0 STARLINK-34936
1 65898U 25224S   26022.56513806  .00032676  00000-0  11121-2 0  9999
2 65898  53.1579 225.4975 0001430  86.7334 273.3831 15.30153793 17812
Epoch: 2026-01-22T13:33Z
TLE epoch observation values (Epoch: 2026-01-22T13:33:47.928Z)
Latitude
0.00004°
Longitude
-99.86865°
Altitude
476.195 km
Speed
7.629 km/s
True Right ascension
15h 01m 59s
True Declination
0° 00' 00"
Sunlit
Object was in daylight at epoch
Visualization orbit readout
Latitude
Unknown
Longitude
Unknown
Altitude
Unknown
Speed
Unknown
Apparent Right ascension
Unknown
Apparent Declination
Unknown
Sunlit
N/A
Visualization observer readout
Local Sidereal Time
21:46:47
Azimuth
Unknown
Elevation
Unknown
Doppler factor
Unknown
Orbital elements
Apogee altitude
476.59 km
Perigee altitude
474.63 km
Semi-major axis
6,853.747 km
Eccentricity
0.00014
Inclination
53.1579°
RAAN
225.4975°
Arg. of periapsis
86.7334°
True anomaly
273.36674°
Mean anomaly
273.3831°
Eccentric anomaly
273.37492°
Mean motion
3.82517 °/min
Orbital period
94.11 mins
BSTAR
0.0011121
Loading maneuver chart data...
Computing Atmospheric mass density...
Loading historical data...
Loading historical data...
Loading historical data...
Loading historical data...
Loading historical data...
Loading historical data...
Loading historical data...

Documentation

Showing up to 5 results
|